Regional Weather Roundup
Issued by NWS

Home | Current Version | Previous Version | Graphics & Text | Print | Product List | Glossary On
Versions: 1 2 3 4 5 6 7 8 9 10 11 12 13 14 15 16 17 18 19 20 21 22 23 24 25 26 27 28 29 30 31 32 33 34 35 36 37 38 39 40 41 42 43 44 45 46 47 48 49 50
000
ASUS43 KBIS 010502
RWRND

NORTH DAKOTA REGIONAL WEATHER ROUNDUP
NATIONAL WEATHER SERVICE BISMARCK ND
1200 AM CDT SAT OCT 01 2016

NOTE: "FAIR" INDICATES FEW OR NO CLOUDS BELOW 12,000 FEET WITH NO
SIGNIFICANT WEATHER AND/OR OBSTRUCTIONS TO VISIBILITY.


NDZ001>003-009>011-017-010600-
NORTHWEST NORTH DAKOTA

CITY           SKY/WX    TMP DP  RH WIND       PRES   REMARKS
WILLISTON      CLEAR     56  48  74 CALM      29.98S
MINOT          CLEAR     56  48  74 SE10      30.04F
MINOT AFB      CLEAR     54  48  81 SE9       30.04R
$$

NDZ018>021-031>035-040>046-010600-
SOUTHWEST NORTH DAKOTA

CITY           SKY/WX    TMP DP  RH WIND       PRES   REMARKS
BISMARCK       PTCLDY    61  46  57 SE9       30.07S
DICKINSON      CLEAR     52  45  77 SE9       29.99F
GARRISON         N/A     56  48  74 SE8       30.04S
HETTINGER ARPT CLEAR     55  46  71 SE8       30.02F
$$

NDZ004>008-012>016-024-026-027-054-010600-
NORTHEAST NORTH DAKOTA

CITY           SKY/WX    TMP DP  RH WIND       PRES   REMARKS
GRAND FORKS    CLOUDY    57  49  74 SE10      30.17F
GRND FRKS AFB  PTCLDY    56  50  81 S7        30.17F
DEVILS LAKE    CLOUDY    59  47  64 SE15      30.14S
$$

NDZ022-023-025-028>030-036>039-047>053-010600-
SOUTHEAST NORTH DAKOTA

CITY           SKY/WX    TMP DP  RH WIND       PRES   REMARKS
FARGO          CLOUDY    58  48  69 SE12      30.17F
JAMESTOWN      MOCLDY    57  49  74 SE13      30.13F
$$





USA.gov is the U.S. government's official web portal to all federal, state and local government web resources and services.